Regional Weather Roundup
Issued by NWS Raleigh/Durham, NC

Home | Current Version | Previous Version | Text Only | Print | Product List | Glossary On
Versions: 1 2 3 4 5 6 7 8 9 10 11 12 13 14 15 16 17 18 19 20 21 22 23 24 25 26 27 28
000
ASUS42 KRAH 210310
RWRRAH
NORTH CAROLINA WEATHER ROUNDUP
NATIONAL WEATHER SERVICE RALEIGH NC
1100 PM EDT THU JUL 20 2017

NOTE: "FAIR" INDICATES FEW OR NO CLOUDS BELOW 12,000 FEET WITH NO
SIGNIFICANT WEATHER AND/OR OBSTRUCTIONS TO VISIBILITY.

NCZ001-053-055-056-065-067-210400-
WESTERN NORTH CAROLINA

CITY           SKY/WX    TMP DP  RH WIND       PRES   REMARKS
ASHEVILLE      CLEAR     77  68  73 N3        30.14R
JEFFERSON      CLOUDY    74  63  67 NW7       30.19S
HICKORY        CLOUDY    80  69  69 NW3       30.05R
RUTHERFORDTON  CLEAR     77  77  99 CALM      30.06R
MOUNT AIRY     CLOUDY    79  71  77 NW3       30.08R
BOONE          CLEAR     72  63  73 CALM      30.21R
$$

NCZ021-022-025-041-071-084-088-210400-
CENTRAL NORTH CAROLINA

CITY           SKY/WX    TMP DP  RH WIND       PRES   REMARKS
CHARLOTTE      PTCLDY    81  70  69 SW6       30.03R
GREENSBORO     MOCLDY    82  73  74 SW5       30.02R
WINSTON-SALEM  CLOUDY    85  68  56 CALM      30.04R
RALEIGH-DURHAM MOCLDY    82  71  69 CALM      30.01R
FORT BRAGG     CLEAR     85  71  63 S5        30.00R
FAYETTEVILLE   CLEAR     86  75  69 S10       30.01R HX  95
BURLINGTON     CLEAR     80  72  76 S3        30.00R
LAURINBURG     PTCLDY    81  76  84 SW8       30.02R
$$

NCZ011-015-027-028-043-044-047-080-103-210400-
NORTHEASTERN NORTH CAROLINA

CITY           SKY/WX    TMP DP  RH WIND       PRES   REMARKS
ROCKY MT-WILSO CLEAR     79  74  84 S6        30.00R
GREENVILLE     CLEAR     81  73  78 S10       30.02S
WASHINGTON     CLEAR     80  73  80 S5        30.01S
ELIZABETH CITY CLOUDY    80  77  90 S7        29.99R
MANTEO         CLOUDY    80  74  82 SW12      30.02R
CAPE HATTERAS  CLOUDY    81  74  79 SW9       30.03R
$$

NCZ078-087-090-091-093-098-101-210400-
SOUTHEASTERN NORTH CAROLINA

CITY           SKY/WX    TMP DP  RH WIND       PRES   REMARKS
LUMBERTON      CLEAR     79  75  87 S6        30.02R
GOLDSBORO      CLEAR     81  80  97 S5        30.00R
KINSTON        CLEAR     80  74  80 S6        30.02R
KENANSVILLE    CLEAR     79  73  83 CALM      30.03R
NEW BERN       CLEAR     78  75  90 S7        30.03R
CHERRY POINT   NOT AVBL
BEAUFORT       PTCLDY    81  77  88 SW10      30.03S
JACKSONVILLE   CLEAR     79  77  94 SW5       30.02R
WILMINGTON     CLEAR     79  76  90 SW7       30.03S
$$





USA.gov is the U.S. government's official web portal to all federal, state and local government web resources and services.